When you browse on this site, cookies collect data to enhance your experience and personalize the content and advertising you see.
Visit our Privacy Policy to learn more. By continuing to use the site, you agree to this use of cookies and data.
  • în România
  • Lista ţărilor
  • Pe 7 zile
  • Temperatura apei
  • Hartă satelitară
  • Meteo pe hartă
  • Widget-uri
  • user-avatar
    Intrare

    Meteo pe oră la Atzitzintla

    Astăzi, 16 Iulie, Marţi

    Timp Temperatura Precipitaţii Vânt Presiune Umiditate
    00:00 +12°C° 0 mm 2 m/s 564 mmHg 92%
    01:00 +10°C° 0 mm 2 m/s 563 mmHg 89%
    02:00 +11°C° 0 mm 1 m/s 562 mmHg 86%
    03:00 +10°C° 0 mm 1 m/s 562 mmHg 83%
    04:00 +10°C° 0 mm 1 m/s 562 mmHg 84%
    05:00 +10°C° 0 mm 1 m/s 562 mmHg 85%
    06:00 +10°C° 0 mm 1 m/s 562 mmHg 86%
    07:00 +12°C° 0 mm 1 m/s 564 mmHg 76%
    08:00 +15°C° 0 mm 2 m/s 565 mmHg 66%
    09:00 +17°C° 0 mm 2 m/s 567 mmHg 55%
    10:00 +18°C° 0 mm 3 m/s 567 mmHg 53%
    11:00 +19°C° 0 mm 3 m/s 568 mmHg 51%
    12:00 +20°C° 0 mm 4 m/s 568 mmHg 48%
    13:00 +20°C° 0.3 mm 4 m/s 567 mmHg 53%
    14:00 +20°C° 0.3 mm 4 m/s 567 mmHg 58%
    15:00 +19°C° 0.3 mm 4 m/s 566 mmHg 63%
    16:00 +18°C° 0.4 mm 4 m/s 565 mmHg 69%
    17:00 +17°C° 0.4 mm 4 m/s 565 mmHg 75%
    18:00 +15°C° 0.4 mm 4 m/s 564 mmHg 80%
    19:00 +13°C° 0.2 mm 3 m/s 564 mmHg 85%
    20:00 +12°C° 0.2 mm 3 m/s 564 mmHg 89%
    21:00 +11°C° 0.2 mm 3 m/s 564 mmHg 93%
    22:00 +11°C° 0 mm 3 m/s 564 mmHg 93%
    23:00 +12°C° 0 mm 2 m/s 564 mmHg 93%

    Mâine, 17 Iulie, Miercuri

    Timp Temperatura Precipitaţii Vânt Presiune Umiditate
    00:00 +10°C° 0 mm 2 m/s 564 mmHg 92%
    01:00 +10°C° 0 mm 2 m/s 563 mmHg 91%
    02:00 +10°C° 0 mm 2 m/s 563 mmHg 90%
    03:00 +9°C° 0 mm 2 m/s 562 mmHg 89%
    04:00 +9°C° 0 mm 2 m/s 562 mmHg 89%
    05:00 +9°C° 0 mm 2 m/s 563 mmHg 88%
    06:00 +9°C° 0 mm 2 m/s 563 mmHg 88%
    07:00 +10°C° 0.6 mm 2 m/s 564 mmHg 88%
    08:00 +11°C° 0.6 mm 3 m/s 565 mmHg 87%
    09:00 +12°C° 0.6 mm 3 m/s 565 mmHg 86%
    10:00 +14°C° 0.4 mm 4 m/s 566 mmHg 76%
    11:00 +16°C° 0.4 mm 5 m/s 567 mmHg 65%
    12:00 +19°C° 0.4 mm 6 m/s 567 mmHg 54%
    13:00 +17°C° 0 mm 6 m/s 566 mmHg 58%
    14:00 +16°C° 0 mm 6 m/s 566 mmHg 62%
    15:00 +15°C° 0 mm 5 m/s 565 mmHg 66%
    16:00 +14°C° 0 mm 5 m/s 564 mmHg 67%
    17:00 +13°C° 0 mm 5 m/s 564 mmHg 68%
    18:00 +13°C° 0 mm 4 m/s 564 mmHg 68%
    19:00 +12°C° 0 mm 4 m/s 564 mmHg 67%
    20:00 +12°C° 0 mm 4 m/s 564 mmHg 66%
    21:00 +12°C° 0 mm 3 m/s 564 mmHg 64%
    22:00 +12°C° 0 mm 3 m/s 564 mmHg 65%
    23:00 +11°C° 0 mm 3 m/s 564 mmHg 66%

    Poimâine, 18 Iulie, Joi

    Timp Temperatura Precipitaţii Vânt Presiune Umiditate
    00:00 +12°C° 0 mm 2 m/s 564 mmHg 67%
    01:00 +10°C° 0 mm 2 m/s 563 mmHg 70%
    02:00 +10°C° 0 mm 2 m/s 563 mmHg 72%
    03:00 +9°C° 0 mm 2 m/s 562 mmHg 75%
    04:00 +9°C° 0 mm 2 m/s 562 mmHg 73%
    05:00 +9°C° 0 mm 2 m/s 562 mmHg 72%
    06:00 +8°C° 0 mm 2 m/s 562 mmHg 70%
    07:00 +12°C° 0 mm 2 m/s 564 mmHg 64%
    08:00 +14°C° 0 mm 2 m/s 565 mmHg 57%
    09:00 +16°C° 0 mm 2 m/s 567 mmHg 51%
    10:00 +16°C° 0.2 mm 3 m/s 567 mmHg 58%
    11:00 +17°C° 0.2 mm 3 m/s 566 mmHg 64%
    12:00 +17°C° 0.2 mm 4 m/s 566 mmHg 71%
    13:00 +15°C° 0.6 mm 4 m/s 565 mmHg 71%
    14:00 +15°C° 0.6 mm 4 m/s 565 mmHg 72%
    15:00 +15°C° 0.6 mm 4 m/s 564 mmHg 73%
    16:00 +15°C° 0.1 mm 4 m/s 564 mmHg 73%
    17:00 +14°C° 0.1 mm 4 m/s 564 mmHg 73%
    18:00 +14°C° 0.1 mm 4 m/s 564 mmHg 73%
    19:00 +13°C° 0 mm 3 m/s 563 mmHg 77%
    20:00 +11°C° 0 mm 3 m/s 563 mmHg 80%
    21:00 +10°C° 0 mm 3 m/s 563 mmHg 84%
    22:00 +10°C° 0 mm 3 m/s 563 mmHg 76%
    23:00 +10°C° 0 mm 2 m/s 563 mmHg 68%

    19 Iulie, Vineri

    Timp Temperatura Precipitaţii Vânt Presiune Umiditate
    00:00 +9°C° 0 mm 2 m/s 563 mmHg 60%
    01:00 +9°C° 0 mm 2 m/s 562 mmHg 60%
    02:00 +9°C° 0 mm 2 m/s 562 mmHg 59%
    03:00 +9°C° 0 mm 1 m/s 561 mmHg 59%
    04:00 +9°C° 0 mm 1 m/s 561 mmHg 59%
    05:00 +9°C° 0 mm 1 m/s 561 mmHg 59%
    06:00 +9°C° 0 mm 1 m/s 561 mmHg 59%
    07:00 +10°C° 0 mm 2 m/s 563 mmHg 58%
    08:00 +14°C° 0 mm 2 m/s 565 mmHg 56%
    09:00 +16°C° 0 mm 2 m/s 566 mmHg 55%
    10:00 +17°C° 0 mm 2 m/s 566 mmHg 53%
    11:00 +18°C° 0 mm 3 m/s 567 mmHg 52%
    12:00 +19°C° 0 mm 4 m/s 567 mmHg 50%
    13:00 +19°C° 0.2 mm 4 m/s 566 mmHg 55%
    14:00 +18°C° 0.2 mm 4 m/s 565 mmHg 61%
    15:00 +18°C° 0.2 mm 4 m/s 564 mmHg 66%
    16:00 +17°C° 0.3 mm 4 m/s 564 mmHg 70%
    17:00 +15°C° 0.3 mm 4 m/s 564 mmHg 74%
    18:00 +14°C° 0.3 mm 4 m/s 563 mmHg 77%
    19:00 +13°C° 0.1 mm 3 m/s 563 mmHg 82%
    20:00 +11°C° 0.1 mm 3 m/s 563 mmHg 88%
    21:00 +10°C° 0.1 mm 2 m/s 563 mmHg 93%
    22:00 +10°C° 0 mm 2 m/s 563 mmHg 86%
    23:00 +9°C° 0 mm 2 m/s 562 mmHg 79%

    20 Iulie, Sâmbătă

    Timp Temperatura Precipitaţii Vânt Presiune Umiditate
    00:00 +9°C° 0 mm 1 m/s 562 mmHg 73%
    01:00 +9°C° 0 mm 1 m/s 562 mmHg 65%
    02:00 +9°C° 0 mm 1 m/s 561 mmHg 57%
    03:00 +9°C° 0 mm 1 m/s 561 mmHg 50%
    04:00 +9°C° 0 mm 1 m/s 561 mmHg 51%
    05:00 +9°C° 0 mm 1 m/s 561 mmHg 52%
    06:00 +9°C° 0 mm 1 m/s 561 mmHg 53%
    07:00 +11°C° 0 mm 1 m/s 563 mmHg 51%
    08:00 +13°C° 0 mm 1 m/s 564 mmHg 48%
    09:00 +16°C° 0 mm 1 m/s 566 mmHg 46%
    10:00 +17°C° 0 mm 2 m/s 566 mmHg 44%
    11:00 +18°C° 0 mm 2 m/s 567 mmHg 42%
    12:00 +20°C° 0 mm 2 m/s 567 mmHg 40%
    13:00 +20°C° 0 mm 3 m/s 566 mmHg 44%
    14:00 +19°C° 0 mm 3 m/s 566 mmHg 47%
    15:00 +19°C° 0 mm 4 m/s 565 mmHg 51%
    16:00 +18°C° 0.1 mm 4 m/s 564 mmHg 60%
    17:00 +17°C° 0.1 mm 4 m/s 564 mmHg 69%
    18:00 +14°C° 0.1 mm 4 m/s 563 mmHg 79%
    19:00 +13°C° 0.1 mm 3 m/s 563 mmHg 83%
    20:00 +13°C° 0.1 mm 2 m/s 563 mmHg 88%
    21:00 +10°C° 0.1 mm 2 m/s 562 mmHg 92%
    22:00 +11°C° 0 mm 1 m/s 563 mmHg 92%
    23:00 +11°C° 0 mm 1 m/s 563 mmHg 92%

    21 Iulie, Duminică

    Timp Temperatura Precipitaţii Vânt Presiune Umiditate
    00:00 +12°C° 0 mm 1 m/s 563 mmHg 93%
    01:00 +11°C° 0 mm 1 m/s 563 mmHg 92%
    02:00 +10°C° 0 mm 1 m/s 562 mmHg 91%
    03:00 +10°C° 0 mm 1 m/s 561 mmHg 90%
    04:00 +10°C° 0 mm 1 m/s 561 mmHg 87%
    05:00 +8°C° 0 mm 0 m/s 561 mmHg 85%
    06:00 +8°C° 0 mm 0 m/s 561 mmHg 82%
    07:00 +11°C° 0 mm 0 m/s 563 mmHg 73%
    08:00 +14°C° 0 mm 1 m/s 564 mmHg 64%
    09:00 +18°C° 0 mm 1 m/s 566 mmHg 54%
    10:00 +19°C° 0.1 mm 1 m/s 566 mmHg 53%
    11:00 +19°C° 0.1 mm 2 m/s 567 mmHg 52%
    12:00 +20°C° 0.1 mm 2 m/s 567 mmHg 51%
    13:00 +20°C° 0.7 mm 3 m/s 566 mmHg 58%
    14:00 +19°C° 0.7 mm 3 m/s 565 mmHg 64%
    15:00 +18°C° 0.7 mm 3 m/s 564 mmHg 70%
    16:00 +17°C° 0.8 mm 3 m/s 564 mmHg 75%
    17:00 +16°C° 0.8 mm 3 m/s 564 mmHg 79%
    18:00 +14°C° 0.8 mm 3 m/s 563 mmHg 83%
    19:00 +14°C° 0.2 mm 2 m/s 563 mmHg 87%
    20:00 +13°C° 0.2 mm 1 m/s 563 mmHg 90%
    21:00 +13°C° 0.2 mm 1 m/s 563 mmHg 94%
    22:00 +12°C° 0 mm 1 m/s 563 mmHg 93%
    23:00 +12°C° 0 mm 1 m/s 563 mmHg 92%
    Arată mai mult